Weather in Izmaylovo

Russia / Oryol Oblast     53°02′14″N   36°53′05″E
temp.,
°C
wind,
m/s
gust,
m/s
humid.,
%
clouds,
%
prec.,
mm/h
press.,
hPa
HPBL,
m
16 may, sun
sun1600:00+12ssw34930 0.0 101260
03:00+11ssw33930 0.0 101349
06:00+12s35905 0.0 1014102
09:00+17s46735 0.0 1014420
12:00+21ssw46585 0.2 10141556
15:00+21ssw3563100 0.3 1014382
18:00+21sw126699 0.0 1013605
21:00+16ene227599 0.0 101315
17 may, mon
mon1700:00+14ene35838 0.0 101363
03:00+13ene41084100 0.3 1013170
06:00+14e5129274 0.8 1012270
09:00+20ese611745 0.8 1011451
12:00+24ese710581 0.0 1010761
15:00+25ese713585 0.0 10091749
18:00+23ese714641 0.0 1008619
21:00+19ese7167221 0.0 1008429
18 may, tue
tue1800:00+17se514808 0.0 1008336
03:00+15ese4108691 0.0 1007204
06:00+15se4108785 0.1 1007237
09:00+19sse6979100 0.1 1007610
12:00+22sse796652 0.0 10071187
15:00+22s5867100 0.4 1006713
18:00+18sse5137694 0.7 1006699
21:00+15sse3109245 0.7 1007229
19 may, wed
wed1900:00+14se369460 0.0 1006104
03:00+13se3695100 0.0 1006136
06:00+15se3892100 0.0 1005275
09:00+18sse577868 0.1 1005578
12:00+19sse5773100 1.2 10041182
15:00+17sse4885100 2.4 1004524
18:00+14ssw599197 1.1 1005547
21:00+12s499252 1.1 1005370
20 may, thu
thu2000:00+10s489768 0.0 1006294
03:00+10s4894100 0.0 1005534
06:00+10ssw4897100 0.5 1005654
09:00+10sw71294100 0.7 1007801
12:00+11sw81390100 0.1 1009918
15:00+15wsw9147396 0.5 10101434
18:00+15w61178100 0.4 10131179
21:00+11nw2288100 0.4 101516